| time (UTC) | temp C | wind direction | speed KPH | gust KPH | rain 1hr cm | rain 24hr cm | rain mn cm | humidity % | barometer mb |
| 20260507070530 | 15 | 148 | 3.2 | 8.0 | 0.00 | 0.00 | 0.00 | 53 | 1009.0 |
| 20260507070032 | 15 | 117 | 3.2 | 4.8 | 0.00 | 0.00 | 0.00 | 53 | 1009.0 |
| 20260507065526 | 15 | 46 | 1.6 | 4.8 | 0.00 | 0.00 | 0.00 | 53 | 1009.0 |
| 20260507065026 | 16 | 112 | 0.0 | 6.4 | 0.00 | 0.00 | 0.00 | 51 | 1008.9 |
| 20260507064537 | 16 | 166 | 3.2 | 8.0 | 0.00 | 0.00 | 0.00 | 49 | 1008.8 |
| 20260507064026 | 16 | 160 | 3.2 | 8.0 | 0.00 | 0.00 | 0.00 | 49 | 1008.8 |
| 20260507063525 | 16 | 131 | 3.2 | 6.4 | 0.00 | 0.00 | 0.00 | 49 | 1008.8 |
| 20260507063026 | 16 | 109 | 1.6 | 4.8 | 0.00 | 0.00 | 0.00 | 49 | 1008.8 |
| 20260507062525 | 16 | 115 | 1.6 | 4.8 | 0.00 | 0.00 | 0.00 | 48 | 1008.7 |
| 20260507062025 | 16 | 117 | 1.6 | 4.8 | 0.00 | 0.00 | 0.00 | 48 | 1008.6 |
| 20260507061529 | 16 | 143 | 1.6 | 6.4 | 0.00 | 0.00 | 0.00 | 49 | 1008.6 |
| 20260507061024 | 17 | 111 | 1.6 | 8.0 | 0.00 | 0.00 | 0.00 | 48 | 1008.7 |
| 20260507060524 | 16 | 111 | 4.8 | 8.0 | 0.00 | 0.00 | 0.00 | 49 | 1008.6 |
| 20260507060024 | 17 | 78 | 1.6 | 4.8 | 0.00 | 0.00 | 0.00 | 49 | 1008.5 |
| 20260507055524 | 17 | 250 | 1.6 | 3.2 | 0.00 | 0.00 | 0.00 | 48 | 1008.4 |
| 20260507055028 | 17 | 109 | 1.6 | 8.0 | 0.00 | 0.00 | 0.00 | 46 | 1008.4 |
| 20260507054524 | 17 | 235 | 4.8 | 8.0 | 0.00 | 0.00 | 0.00 | 45 | 1008.5 |
| 20260507054024 | 18 | 202 | 1.6 | 11.3 | 0.00 | 0.00 | 0.00 | 44 | 1008.4 |
| 20260507053524 | 18 | 205 | 4.8 | 8.0 | 0.00 | 0.00 | 0.00 | 43 | 1008.5 |
| 20260507053024 | 18 | 275 | 0.0 | 4.8 | 0.00 | 0.00 | 0.00 | 45 | 1008.6 |
| 20260507052524 | 18 | 201 | 0.0 | 6.4 | 0.00 | 0.00 | 0.00 | 44 | 1008.6 |
| 20260507052024 | 18 | 207 | 3.2 | 6.4 | 0.00 | 0.00 | 0.00 | 42 | 1008.4 |
| 20260507051523 | 18 | 310 | 1.6 | 3.2 | 0.00 | 0.00 | 0.00 | 44 | 1008.4 |
| 20260507051024 | 18 | 15 | 0.0 | 4.8 | 0.00 | 0.00 | 0.00 | 46 | 1008.4 |
| 20260507050522 | 18 | 347 | 0.0 | 6.4 | 0.00 | 0.00 | 0.00 | 46 | 1008.3 |
| 20260507050036 | 18 | 80 | 3.2 | 9.7 | 0.00 | 0.00 | 0.00 | 46 | 1008.2 |
| 20260507045523 | 18 | 310 | 1.6 | 9.7 | 0.00 | 0.00 | 0.00 | 44 | 1008.3 |
| 20260507045027 | 18 | 92 | 6.4 | 9.7 | 0.00 | 0.00 | 0.00 | 45 | 1008.2 |
| 20260507044523 | 18 | 113 | 3.2 | 4.8 | 0.00 | 0.00 | 0.00 | 46 | 1008.4 |
| 20260507044022 | 18 | 30 | 3.2 | 4.8 | 0.00 | 0.00 | 0.00 | 46 | 1008.2 |
| 20260507043522 | 18 | 54 | 1.6 | 4.8 | 0.00 | 0.00 | 0.00 | 45 | 1008.2 |
| 20260507043022 | 18 | 69 | 1.6 | 4.8 | 0.00 | 0.00 | 0.00 | 44 | 1008.2 |
| 20260507042521 | 18 | 48 | 1.6 | 4.8 | 0.00 | 0.00 | 0.00 | 44 | 1008.2 |
| 20260507042021 | 19 | 58 | 1.6 | 8.0 | 0.00 | 0.00 | 0.00 | 43 | 1008.3 |
| 20260507041526 | 19 | 26 | 1.6 | 8.0 | 0.00 | 0.00 | 0.00 | 42 | 1008.4 |
| 20260507041023 | 20 | 344 | 1.6 | 4.8 | 0.00 | 0.00 | 0.00 | 42 | 1008.4 |
| 20260507040521 | 20 | 137 | 0.0 | 4.8 | 0.00 | 0.00 | 0.00 | 40 | 1008.5 |
| 20260507040021 | 20 | 81 | 1.6 | 4.8 | 0.00 | 0.00 | 0.00 | 40 | 1008.3 |
| 20260507035520 | 20 | 68 | 3.2 | 6.4 | 0.00 | 0.00 | 0.00 | 39 | 1008.3 |
| 20260507035021 | 20 | 26 | 1.6 | 9.7 | 0.00 | 0.00 | 0.00 | 39 | 1008.3 |
| 20260507034522 | 20 | 65 | 3.2 | 9.7 | 0.00 | 0.00 | 0.00 | 38 | 1008.2 |
| 20260507034024 | 21 | 15 | 3.2 | 9.7 | 0.00 | 0.00 | 0.00 | 38 | 1008.2 |
| 20260507033524 | 21 | 128 | 3.2 | 17.7 | 0.00 | 0.00 | 0.00 | 37 | 1008.1 |
| 20260507033021 | 21 | 252 | 8.0 | 17.7 | 0.00 | 0.00 | 0.00 | 37 | 1007.9 |
| 20260507032519 | 21 | 164 | 8.0 | 17.7 | 0.00 | 0.00 | 0.00 | 37 | 1007.8 |
| 20260507032019 | 21 | 257 | 8.0 | 22.5 | 0.00 | 0.00 | 0.00 | 37 | 1007.7 |
| 20260507031519 | 21 | 200 | 14.5 | 30.6 | 0.00 | 0.00 | 0.00 | 36 | 1007.6 |
| 20260507031019 | 22 | 226 | 14.5 | 35.4 | 0.00 | 0.00 | 0.00 | 35 | 1007.6 |
| 20260507030519 | 22 | 250 | 14.5 | 35.4 | 0.00 | 0.00 | 0.00 | 35 | 1007.6 |
| 20260507030027 | 22 | 234 | 9.7 | 30.6 | 0.00 | 0.00 | 0.00 | 35 | 1007.6 |
| 20260507025518 | 22 | 245 | 12.9 | 30.6 | 0.00 | 0.00 | 0.00 | 35 | 1007.7 |
| 20260507025018 | 22 | 246 | 16.1 | 27.4 | 0.00 | 0.00 | 0.00 | 35 | 1007.8 |
| 20260507024524 | 22 | 220 | 12.9 | 29.0 | 0.00 | 0.00 | 0.00 | 38 | 1007.8 |
| 20260507024017 | 23 | 207 | 12.9 | 25.7 | 0.00 | 0.00 | 0.00 | 36 | 1007.8 |
| 20260507023517 | 23 | 237 | 14.5 | 32.2 | 0.00 | 0.00 | 0.00 | 38 | 1007.8 |
| 20260507023017 | 23 | 193 | 14.5 | 32.2 | 0.00 | 0.00 | 0.00 | 39 | 1007.8 |
| 20260507022517 | 23 | 216 | 14.5 | 32.2 | 0.00 | 0.00 | 0.00 | 39 | 1007.8 |
| 20260507022017 | 23 | 220 | 11.3 | 24.1 | 0.00 | 0.00 | 0.00 | 41 | 1007.8 |
| 20260507021516 | 23 | 213 | 11.3 | 24.1 | 0.00 | 0.00 | 0.00 | 41 | 1007.9 |
| 20260507021015 | 23 | 211 | 9.7 | 24.1 | 0.00 | 0.00 | 0.00 | 40 | 1008.0 |
| 20260507020515 | 23 | 186 | 9.7 | 22.5 | 0.00 | 0.00 | 0.00 | 40 | 1008.0 |
| 20260507020015 | 24 | 232 | 8.0 | 27.4 | 0.00 | 0.00 | 0.00 | 40 | 1008.0 |
| 20260507015516 | 24 | 190 | 12.9 | 27.4 | 0.00 | 0.00 | 0.00 | 40 | 1008.1 |
| 20260507015014 | 24 | 199 | 14.5 | 27.4 | 0.00 | 0.00 | 0.00 | 39 | 1008.2 |
| 20260507014514 | 24 | 195 | 12.9 | 20.9 | 0.00 | 0.00 | 0.00 | 39 | 1008.3 |
| 20260507014014 | 24 | 196 | 8.0 | 24.1 | 0.00 | 0.00 | 0.00 | 39 | 1008.3 |
| 20260507013511 | 24 | 196 | 8.0 | 24.1 | 0.00 | 0.00 | 0.00 | 38 | 1008.4 |
| 20260507013014 | 24 | 223 | 8.0 | 22.5 | 0.00 | 0.00 | 0.00 | 38 | 1008.5 |
| 20260507012510 | 24 | 205 | 9.7 | 17.7 | 0.00 | 0.00 | 0.00 | 38 | 1008.5 |
| 20260507012010 | 24 | 192 | 8.0 | 17.7 | 0.00 | 0.00 | 0.00 | 38 | 1008.6 |
| 20260507011509 | 24 | 246 | 8.0 | 16.1 | 0.00 | 0.00 | 0.00 | 37 | 1008.6 |
| 20260507011009 | 25 | 228 | 4.8 | 17.7 | 0.00 | 0.00 | 0.00 | 37 | 1008.6 |
| 20260507010509 | 25 | 257 | 9.7 | 22.5 | 0.00 | 0.00 | 0.00 | 37 | 1008.6 |
| 20260507010009 | 25 | 235 | 12.9 | 16.1 | 0.00 | 0.00 | 0.00 | 37 | 1008.6 |
| 20260507005509 | 25 | 252 | 11.3 | 17.7 | 0.00 | 0.00 | 0.00 | 37 | 1008.7 |
| 20260507005009 | 25 | 247 | 11.3 | 17.7 | 0.00 | 0.00 | 0.00 | 36 | 1008.6 |
| 20260507004508 | 25 | 198 | 8.0 | 27.4 | 0.00 | 0.00 | 0.00 | 37 | 1008.8 |
| 20260507004008 | 25 | 253 | 14.5 | 27.4 | 0.00 | 0.00 | 0.00 | 35 | 1008.8 |
| 20260507003508 | 25 | 236 | 14.5 | 24.1 | 0.00 | 0.00 | 0.00 | 35 | 1008.8 |
| 20260507003008 | 25 | 223 | 12.9 | 24.1 | 0.00 | 0.00 | 0.00 | 35 | 1008.8 |
| 20260507002508 | 25 | 207 | 9.7 | 22.5 | 0.00 | 0.00 | 0.00 | 35 | 1008.9 |
| 20260507002006 | 25 | 235 | 8.0 | 22.5 | 0.00 | 0.00 | 0.00 | 33 | 1008.8 |
| 20260507001508 | 25 | 253 | 11.3 | 20.9 | 0.00 | 0.00 | 0.00 | 32 | 1008.8 |
| 20260507001005 | 25 | 233 | 12.9 | 20.9 | 0.00 | 0.00 | 0.00 | 32 | 1008.8 |
| 20260507000506 | 25 | 240 | 9.7 | 24.1 | 0.00 | 0.00 | 0.00 | 33 | 1008.8 |
| 20260507000006 | 25 | 236 | 9.7 | 24.1 | 0.00 | 0.00 | 0.00 | 33 | 1008.9 |
| 20260506235505 | 25 | 188 | 11.3 | 20.9 | 0.00 | 0.00 | 0.00 | 31 | 1008.8 |
| 20260506235006 | 25 | 227 | 11.3 | 20.9 | 0.00 | 0.00 | 0.00 | 31 | 1008.9 |
| 20260506234505 | 25 | 260 | 11.3 | 25.7 | 0.00 | 0.00 | 0.00 | 33 | 1008.9 |
| 20260506234005 | 25 | 246 | 11.3 | 25.7 | 0.00 | 0.00 | 0.00 | 32 | 1008.9 |
| 20260506233507 | 25 | 232 | 6.4 | 22.5 | 0.00 | 0.00 | 0.00 | 32 | 1008.9 |
| 20260506233010 | 25 | 246 | 14.5 | 29.0 | 0.00 | 0.00 | 0.00 | 32 | 1008.9 |
| 20260506232503 | 25 | 248 | 16.1 | 29.0 | 0.00 | 0.00 | 0.00 | 32 | 1009.0 |
| 20260506232002 | 25 | 186 | 9.7 | 25.7 | 0.00 | 0.00 | 0.00 | 33 | 1009.1 |
| 20260506231502 | 25 | 236 | 9.7 | 25.7 | 0.00 | 0.00 | 0.00 | 32 | 1009.1 |
| 20260506231003 | 25 | 192 | 14.5 | 25.7 | 0.00 | 0.00 | 0.00 | 32 | 1009.2 |
| 20260506230500 | 25 | 234 | 11.3 | 17.7 | 0.00 | 0.00 | 0.00 | 33 | 1009.3 |
| 20260506230124 | 25 | 257 | 9.7 | 24.1 | 0.00 | 0.00 | 0.00 | 33 | 1009.3 |
| 20260506225600 | 26 | 247 | 14.5 | 24.1 | 0.00 | 0.00 | 0.00 | 32 | 1009.4 |
| 20260506225100 | 26 | 221 | 8.0 | 24.1 | 0.00 | 0.00 | 0.00 | 34 | 1009.4 |
| 20260506224602 | 25 | 204 | 11.3 | 32.2 | 0.00 | 0.00 | 0.00 | 33 | 1009.5 |
| 20260506224101 | 25 | 250 | 12.9 | 32.2 | 0.00 | 0.00 | 0.00 | 34 | 1009.6 |
| 20260506223558 | 25 | 245 | 9.7 | 30.6 | 0.00 | 0.00 | 0.00 | 34 | 1009.6 |
| 20260506223100 | 25 | 254 | 16.1 | 30.6 | 0.00 | 0.00 | 0.00 | 33 | 1009.7 |
| 20260506222557 | 25 | 233 | 9.7 | 24.1 | 0.00 | 0.00 | 0.00 | 34 | 1009.6 |
| 20260506222057 | 25 | 241 | 12.9 | 24.1 | 0.00 | 0.00 | 0.00 | 34 | 1009.8 |
| 20260506221619 | 25 | 244 | 16.1 | 27.4 | 0.00 | 0.00 | 0.00 | 33 | 1009.9 |
| 20260506221056 | 25 | 261 | 14.5 | 29.0 | 0.00 | 0.00 | 0.00 | 33 | 1009.8 |
| 20260506220556 | 25 | 259 | 17.7 | 29.0 | 0.00 | 0.00 | 0.00 | 33 | 1009.8 |
| 20260506220120 | 25 | 229 | 14.5 | 22.5 | 0.00 | 0.00 | 0.00 | 34 | 1009.8 |
| 20260506215555 | 26 | 215 | 14.5 | 22.5 | 0.00 | 0.00 | 0.00 | 33 | 1009.9 |
| 20260506215055 | 26 | 245 | 8.0 | 20.9 | 0.00 | 0.00 | 0.00 | 32 | 1009.9 |
| 20260506214555 | 25 | 240 | 12.9 | 20.9 | 0.00 | 0.00 | 0.00 | 32 | 1009.9 |
| 20260506214055 | 26 | 250 | 9.7 | 20.9 | 0.00 | 0.00 | 0.00 | 32 | 1010.0 |
| 20260506213553 | 26 | 230 | 11.3 | 22.5 | 0.00 | 0.00 | 0.00 | 32 | 1010.0 |
| 20260506213106 | 26 | 223 | 11.3 | 19.3 | 0.00 | 0.00 | 0.00 | 31 | 1010.1 |
| 20260506212553 | 26 | 232 | 11.3 | 20.9 | 0.00 | 0.00 | 0.00 | 32 | 1010.1 |
| 20260506212053 | 25 | 238 | 6.4 | 20.9 | 0.00 | 0.00 | 0.00 | 33 | 1010.1 |
| 20260506211553 | 26 | 231 | 9.7 | 24.1 | 0.00 | 0.00 | 0.00 | 33 | 1010.1 |
| 20260506211051 | 26 | 235 | 12.9 | 24.1 | 0.00 | 0.00 | 0.00 | 33 | 1010.2 |
| 20260506210550 | 25 | 222 | 12.9 | 20.9 | 0.00 | 0.00 | 0.00 | 33 | 1010.2 |
| 20260506210055 | 25 | 182 | 12.9 | 19.3 | 0.00 | 0.00 | 0.00 | 34 | 1010.2 |
| 20260506205548 | 25 | 205 | 9.7 | 14.5 | 0.00 | 0.00 | 0.00 | 35 | 1010.4 |
| 20260506205049 | 25 | 185 | 3.2 | 17.7 | 0.00 | 0.00 | 0.00 | 36 | 1010.4 |
| 20260506204547 | 25 | 232 | 11.3 | 17.7 | 0.00 | 0.00 | 0.00 | 35 | 1010.6 |
| 20260506204046 | 25 | 265 | 8.0 | 16.1 | 0.00 | 0.00 | 0.00 | 38 | 1010.7 |
| 20260506203547 | 25 | 269 | 6.4 | 11.3 | 0.00 | 0.00 | 0.00 | 39 | 1010.6 |
| 20260506203044 | 24 | 165 | 3.2 | 12.9 | 0.00 | 0.00 | 0.00 | 42 | 1010.7 |
| 20260506202544 | 25 | 254 | 6.4 | 12.9 | 0.00 | 0.00 | 0.00 | 42 | 1010.9 |
| 20260506202043 | 24 | 155 | 1.6 | 11.3 | 0.00 | 0.00 | 0.00 | 42 | 1010.9 |
| 20260506201547 | 24 | 203 | 3.2 | 9.7 | 0.00 | 0.00 | 0.00 | 43 | 1011.0 |
| 20260506201043 | 24 | 294 | 0.0 | 4.8 | 0.00 | 0.00 | 0.00 | 42 | 1011.1 |
| 20260506200541 | 24 | 293 | 1.6 | 4.8 | 0.00 | 0.00 | 0.00 | 42 | 1011.2 |
| 20260506200040 | 23 | 316 | 1.6 | 11.3 | 0.00 | 0.00 | 0.00 | 43 | 1011.3 |
| 20260506195543 | 23 | 16 | 1.6 | 12.9 | 0.00 | 0.00 | 0.00 | 44 | 1011.3 |
| 20260506195040 | 23 | 233 | 4.8 | 12.9 | 0.00 | 0.00 | 0.00 | 43 | 1011.4 |
| 20260506194540 | 23 | 145 | 3.2 | 11.3 | 0.00 | 0.00 | 0.00 | 43 | 1011.4 |
| 20260506194040 | 23 | 209 | 4.8 | 8.0 | 0.00 | 0.00 | 0.00 | 44 | 1011.4 |
| 20260506193540 | 23 | 218 | 3.2 | 16.1 | 0.00 | 0.00 | 0.00 | 42 | 1011.6 |
| 20260506193038 | 22 | 155 | 8.0 | 16.1 | 0.00 | 0.00 | 0.00 | 43 | 1011.7 |
| 20260506192537 | 22 | 189 | 4.8 | 12.9 | 0.00 | 0.00 | 0.00 | 45 | 1011.7 |
| 20260506192037 | 22 | 161 | 8.0 | 12.9 | 0.00 | 0.00 | 0.00 | 43 | 1011.8 |
| 20260506191537 | 22 | 248 | 6.4 | 12.9 | 0.00 | 0.00 | 0.00 | 45 | 1012.0 |
| 20260506191036 | 22 | 198 | 3.2 | 11.3 | 0.00 | 0.00 | 0.00 | 45 | 1012.0 |
| 20260506190537 | 22 | 252 | 4.8 | 17.7 | 0.00 | 0.00 | 0.00 | 46 | 1012.0 |
| 20260506190035 | 22 | 185 | 4.8 | 12.9 | 0.00 | 0.00 | 0.00 | 43 | 1012.0 |
| 20260506185534 | 21 | 236 | 3.2 | 9.7 | 0.00 | 0.00 | 0.00 | 45 | 1012.1 |
| 20260506185034 | 21 | 210 | 3.2 | 11.3 | 0.00 | 0.00 | 0.00 | 44 | 1012.2 |
| 20260506184540 | 21 | 214 | 4.8 | 11.3 | 0.00 | 0.00 | 0.00 | 44 | 1012.3 |
| 20260506184034 | 21 | 237 | 1.6 | 8.0 | 0.00 | 0.00 | 0.00 | 44 | 1012.4 |
| 20260506183534 | 21 | 226 | 1.6 | 8.0 | 0.00 | 0.00 | 0.00 | 43 | 1012.4 |
| 20260506183035 | 21 | 333 | 1.6 | 8.0 | 0.00 | 0.00 | 0.00 | 44 | 1012.3 |
| 20260506182532 | 21 | 169 | 1.6 | 8.0 | 0.00 | 0.00 | 0.00 | 42 | 1012.4 |
| 20260506182033 | 22 | 22 | 1.6 | 8.0 | 0.00 | 0.00 | 0.00 | 42 | 1012.4 |
| 20260506181532 | 20 | 52 | 3.2 | 8.0 | 0.00 | 0.00 | 0.00 | 42 | 1012.3 |
| 20260506181032 | 20 | 96 | 1.6 | 6.4 | 0.00 | 0.00 | 0.00 | 41 | 1012.5 |
| 20260506180532 | 20 | 156 | 0.0 | 4.8 | 0.00 | 0.00 | 0.00 | 42 | 1012.5 |
| 20260506180038 | 21 | 26 | 0.0 | 4.8 | 0.00 | 0.00 | 0.00 | 41 | 1012.6 |
| 20260506175531 | 20 | 24 | 1.6 | 4.8 | 0.00 | 0.00 | 0.00 | 42 | 1012.6 |
| 20260506175030 | 19 | 244 | 1.6 | 4.8 | 0.00 | 0.00 | 0.00 | 41 | 1012.7 |
| 20260506174533 | 20 | 193 | 0.0 | 6.4 | 0.00 | 0.00 | 0.00 | 42 | 1012.8 |
| 20260506174029 | 19 | 55 | 1.6 | 9.7 | 0.00 | 0.00 | 0.00 | 42 | 1012.7 |
| 20260506173530 | 18 | 321 | 0.0 | 9.7 | 0.00 | 0.00 | 0.00 | 43 | 1012.8 |
| 20260506173028 | 19 | 55 | 3.2 | 8.0 | 0.00 | 0.00 | 0.00 | 41 | 1012.9 |
| 20260506172527 | 18 | 76 | 3.2 | 8.0 | 0.00 | 0.00 | 0.00 | 41 | 1013.1 |
| 20260506172030 | 19 | 90 | 0.0 | 8.0 | 0.00 | 0.00 | 0.00 | 43 | 1013.1 |
| 20260506171538 | 18 | 93 | 1.6 | 8.0 | 0.00 | 0.00 | 0.00 | 43 | 1013.1 |
| 20260506171026 | 18 | 65 | 3.2 | 8.0 | 0.00 | 0.00 | 0.00 | 44 | 1013.1 |
| 20260506170530 | 17 | 136 | 3.2 | 8.0 | 0.00 | 0.00 | 0.00 | 44 | 1013.1 |
| 20260506170026 | 18 | 175 | 3.2 | 6.4 | 0.00 | 0.00 | 0.00 | 42 | 1013.2 |
| 20260506165527 | 18 | 147 | 0.0 | 6.4 | 0.00 | 0.00 | 0.00 | 44 | 1013.2 |
| 20260506165024 | 17 | 95 | 1.6 | 6.4 | 0.00 | 0.00 | 0.00 | 43 | 1013.3 |
| 20260506164525 | 17 | 111 | 3.2 | 8.0 | 0.00 | 0.00 | 0.00 | 43 | 1013.4 |
| 20260506164023 | 17 | 196 | 1.6 | 9.7 | 0.00 | 0.00 | 0.00 | 43 | 1013.3 |
| 20260506163523 | 17 | 142 | 1.6 | 11.3 | 0.00 | 0.00 | 0.00 | 42 | 1013.3 |
| 20260506163023 | 17 | 78 | 3.2 | 11.3 | 0.00 | 0.00 | 0.00 | 43 | 1013.4 |
| 20260506162520 | 16 | 172 | 3.2 | 4.8 | 0.00 | 0.00 | 0.00 | 45 | 1013.4 |
| 20260506162019 | 16 | 221 | 0.0 | 4.8 | 0.00 | 0.00 | 0.00 | 48 | 1013.4 |
| 20260506161520 | 15 | 252 | 1.6 | 4.8 | 0.00 | 0.00 | 0.00 | 52 | 1013.6 |
| 20260506161021 | 15 | 217 | 1.6 | 4.8 | 0.00 | 0.00 | 0.00 | 50 | 1013.6 |
| 20260506160518 | 16 | 167 | 0.0 | 4.8 | 0.00 | 0.00 | 0.00 | 51 | 1013.5 |
| 20260506160018 | 15 | 98 | 0.0 | 4.8 | 0.00 | 0.00 | 0.00 | 52 | 1013.5 |
| 20260506155518 | 15 | 197 | 1.6 | 8.0 | 0.00 | 0.00 | 0.00 | 55 | 1013.4 |
| 20260506155016 | 15 | 111 | 0.0 | 8.0 | 0.00 | 0.00 | 0.00 | 52 | 1013.4 |
| 20260506154519 | 14 | 197 | 0.0 | 4.8 | 0.00 | 0.00 | 0.00 | 58 | 1013.5 |
| 20260506154013 | 13 | 198 | 1.6 | 4.8 | 0.00 | 0.00 | 0.00 | 62 | 1013.5 |
| 20260506153512 | 13 | 207 | 1.6 | 6.4 | 0.00 | 0.00 | 0.00 | 64 | 1013.5 |
| 20260506153010 | 12 | 195 | 1.6 | 6.4 | 0.00 | 0.00 | 0.00 | 65 | 1013.5 |
| 20260506152513 | 12 | 207 | 3.2 | 4.8 | 0.00 | 0.00 | 0.00 | 66 | 1013.5 |
| 20260506152009 | 12 | 204 | 1.6 | 3.2 | 0.00 | 0.00 | 0.00 | 67 | 1013.5 |
| 20260506151508 | 12 | 198 | 0.0 | 3.2 | 0.00 | 0.00 | 0.00 | 69 | 1013.5 |
| 20260506151009 | 11 | 175 | 0.0 | 3.2 | 0.00 | 0.00 | 0.00 | 68 | 1013.5 |
| 20260506150513 | 10 | 202 | 0.0 | 3.2 | 0.00 | 0.00 | 0.00 | 74 | 1013.6 |
| 20260506150008 | 10 | 221 | 1.6 | 1.6 | 0.00 | 0.00 | 0.00 | 75 | 1013.7 |
| 20260506145508 | 10 | 221 | 0.0 | 3.2 | 0.00 | 0.00 | 0.00 | 76 | 1013.6 |
| 20260506145008 | 10 | 221 | 0.0 | 3.2 | 0.00 | 0.00 | 0.00 | 76 | 1013.6 |
| 20260506144508 | 9 | 190 | 0.0 | 1.6 | 0.00 | 0.00 | 0.00 | 77 | 1013.6 |
| 20260506144009 | 9 | 190 | 0.0 | 3.2 | 0.00 | 0.00 | 0.00 | 78 | 1013.6 |
| 20260506143507 | 9 | 217 | 0.0 | 3.2 | 0.00 | 0.00 | 0.00 | 78 | 1013.6 |
| 20260506143007 | 9 | 190 | 0.0 | 3.2 | 0.00 | 0.00 | 0.00 | 77 | 1013.6 |
| 20260506142508 | 8 | 184 | 0.0 | 3.2 | 0.00 | 0.00 | 0.00 | 78 | 1013.6 |
| 20260506142010 | 8 | 177 | 0.0 | 1.6 | 0.00 | 0.00 | 0.00 | 79 | 1013.7 |
| 20260506141506 | 8 | 205 | 0.0 | 3.2 | 0.00 | 0.00 | 0.00 | 79 | 1013.6 |
| 20260506141006 | 7 | 146 | 0.0 | 3.2 | 0.00 | 0.00 | 0.00 | 80 | 1013.6 |
| 20260506140506 | 8 | 119 | 0.0 | 3.2 | 0.00 | 0.00 | 0.00 | 79 | 1013.6 |
| 20260506140011 | 8 | 71 | 0.0 | 3.2 | 0.00 | 0.00 | 0.00 | 80 | 1013.6 |
| 20260506135506 | 8 | 71 | 0.0 | 3.2 | 0.00 | 0.00 | 0.00 | 79 | 1013.6 |
| 20260506135004 | 7 | 71 | 0.0 | 0.0 | 0.00 | 0.00 | 0.00 | 81 | 1013.6 |
| 20260506134505 | 7 | 71 | 0.0 | 1.6 | 0.00 | 0.00 | 0.00 | 82 | 1013.5 |
| 20260506134004 | 7 | 71 | 0.0 | 1.6 | 0.00 | 0.00 | 0.00 | 82 | 1013.5 |
| 20260506133503 | 7 | 71 | 0.0 | 3.2 | 0.00 | 0.00 | 0.00 | 83 | 1013.5 |
| 20260506133003 | 7 | 71 | 0.0 | 3.2 | 0.00 | 0.00 | 0.00 | 83 | 1013.5 |
| 20260506132502 | 6 | 71 | 0.0 | 3.2 | 0.00 | 0.00 | 0.00 | 84 | 1013.5 |
| 20260506132002 | 6 | 71 | 0.0 | 3.2 | 0.00 | 0.00 | 0.00 | 83 | 1013.4 |
| 20260506131503 | 6 | 71 | 0.0 | 1.6 | 0.00 | 0.00 | 0.00 | 82 | 1013.5 |
| 20260506131100 | 6 | 71 | 0.0 | 3.2 | 0.00 | 0.00 | 0.00 | 82 | 1013.4 |
| 20260506131001 | 7 | 71 | 0.0 | 3.2 | 0.00 | 0.00 | 0.00 | 81 | 1013.4 |
| 20260506130600 | 7 | 71 | 0.0 | 3.2 | 0.00 | 0.00 | 0.00 | 81 | 1013.3 |
| 20260506130059 | 7 | 71 | 1.6 | 3.2 | 0.00 | 0.00 | 0.00 | 81 | 1013.2 |
| 20260506125558 | 7 | 68 | 1.6 | 3.2 | 0.00 | 0.00 | 0.00 | 81 | 1013.1 |
| 20260506125058 | 6 | 68 | 1.6 | 1.6 | 0.00 | 0.00 | 0.00 | 82 | 1013.1 |
| 20260506124558 | 6 | 65 | 0.0 | 3.2 | 0.00 | 0.00 | 0.00 | 82 | 1013.0 |
| 20260506124058 | 6 | 42 | 0.0 | 3.2 | 0.00 | 0.00 | 0.00 | 82 | 1013.0 |
| 20260506123557 | 6 | 42 | 0.0 | 3.2 | 0.00 | 0.00 | 0.00 | 81 | 1013.0 |
| 20260506123057 | 6 | 42 | 0.0 | 3.2 | 0.00 | 0.00 | 0.00 | 81 | 1013.0 |
| 20260506122556 | 6 | 42 | 0.0 | 3.2 | 0.00 | 0.00 | 0.00 | 81 | 1012.9 |
| 20260506122054 | 6 | 67 | 0.0 | 3.2 | 0.00 | 0.00 | 0.00 | 81 | 1012.9 |
| 20260506121558 | 6 | 67 | 0.0 | 3.2 | 0.00 | 0.00 | 0.00 | 81 | 1012.8 |
| 20260506121053 | 7 | 79 | 0.0 | 3.2 | 0.00 | 0.00 | 0.00 | 80 | 1012.7 |
| 20260506120552 | 7 | 88 | 0.0 | 3.2 | 0.00 | 0.00 | 0.00 | 80 | 1012.7 |
| 20260506120053 | 7 | 88 | 0.0 | 3.2 | 0.00 | 0.00 | 0.00 | 78 | 1012.7 |
| 20260506115550 | 7 | 90 | 0.0 | 3.2 | 0.00 | 0.00 | 0.00 | 78 | 1012.6 |
| 20260506115048 | 7 | 102 | 0.0 | 3.2 | 0.00 | 0.00 | 0.00 | 77 | 1012.6 |
| 20260506114553 | 7 | 109 | 0.0 | 1.6 | 0.00 | 0.00 | 0.00 | 76 | 1012.6 |
| 20260506114048 | 7 | 111 | 0.0 | 1.6 | 0.00 | 0.00 | 0.00 | 76 | 1012.6 |
| 20260506113547 | 8 | 111 | 0.0 | 1.6 | 0.00 | 0.00 | 0.00 | 76 | 1012.5 |
| 20260506113046 | 8 | 96 | 0.0 | 3.2 | 0.00 | 0.00 | 0.00 | 75 | 1012.5 |
| 20260506112547 | 8 | 98 | 0.0 | 3.2 | 0.00 | 0.00 | 0.00 | 75 | 1012.6 |
| 20260506112045 | 8 | 98 | 1.6 | 1.6 | 0.00 | 0.00 | 0.00 | 75 | 1012.5 |
| 20260506111547 | 8 | 65 | 0.0 | 1.6 | 0.00 | 0.00 | 0.00 | 75 | 1012.5 |
| 20260506111045 | 8 | 65 | 0.0 | 1.6 | 0.00 | 0.00 | 0.00 | 75 | 1012.5 |
| 20260506110545 | 8 | 63 | 1.6 | 1.6 | 0.00 | 0.00 | 0.00 | 76 | 1012.4 |
| 20260506110044 | 8 | 63 | 0.0 | 1.6 | 0.00 | 0.00 | 0.00 | 76 | 1012.4 |
| 20260506105544 | 8 | 63 | 0.0 | 1.6 | 0.00 | 0.00 | 0.00 | 75 | 1012.4 |
| 20260506105044 | 8 | 63 | 0.0 | 1.6 | 0.00 | 0.00 | 0.00 | 76 | 1012.3 |
| 20260506104545 | 8 | 61 | 1.6 | 1.6 | 0.00 | 0.00 | 0.00 | 76 | 1012.3 |
| 20260506104042 | 7 | 39 | 0.0 | 1.6 | 0.00 | 0.00 | 0.00 | 76 | 1012.4 |
| 20260506103541 | 8 | 39 | 0.0 | 1.6 | 0.00 | 0.00 | 0.00 | 75 | 1012.3 |
| 20260506103040 | 8 | 39 | 0.0 | 1.6 | 0.00 | 0.00 | 0.00 | 75 | 1012.3 |
| 20260506102540 | 8 | 39 | 0.0 | 1.6 | 0.00 | 0.00 | 0.00 | 75 | 1012.3 |
| 20260506102040 | 8 | 39 | 1.6 | 1.6 | 0.00 | 0.00 | 0.00 | 76 | 1012.3 |
| 20260506101543 | 8 | 53 | 0.0 | 3.2 | 0.00 | 0.00 | 0.00 | 75 | 1012.3 |
| 20260506101039 | 8 | 47 | 0.0 | 3.2 | 0.00 | 0.00 | 0.00 | 75 | 1012.2 |
| 20260506100538 | 8 | 34 | 0.0 | 1.6 | 0.00 | 0.00 | 0.00 | 75 | 1012.3 |
| 20260506100044 | 8 | 34 | 0.0 | 1.6 | 0.00 | 0.00 | 0.00 | 75 | 1012.3 |
| 20260506095537 | 8 | 34 | 0.0 | 1.6 | 0.00 | 0.00 | 0.00 | 75 | 1012.3 |
| 20260506095036 | 8 | 34 | 1.6 | 1.6 | 0.00 | 0.00 | 0.00 | 75 | 1012.3 |
| 20260506094535 | 8 | 34 | 0.0 | 3.2 | 0.00 | 0.00 | 0.00 | 74 | 1012.3 |
| 20260506094035 | 9 | 34 | 0.0 | 3.2 | 0.00 | 0.00 | 0.00 | 75 | 1012.2 |
| 20260506093534 | 9 | 34 | 0.0 | 3.2 | 0.00 | 0.00 | 0.00 | 76 | 1012.3 |
| 20260506093034 | 9 | 34 | 0.0 | 3.2 | 0.00 | 0.00 | 0.00 | 74 | 1012.3 |
| 20260506092533 | 9 | 34 | 0.0 | 0.0 | 0.00 | 0.00 | 0.00 | 74 | 1012.3 |
| 20260506092033 | 9 | 34 | 0.0 | 0.0 | 0.00 | 0.00 | 0.00 | 73 | 1012.2 |
| 20260506091532 | 9 | 34 | 0.0 | 3.2 | 0.00 | 0.00 | 0.00 | 72 | 1012.2 |
| 20260506091031 | 9 | 34 | 0.0 | 3.2 | 0.00 | 0.00 | 0.00 | 71 | 1012.2 |
| 20260506090530 | 9 | 34 | 0.0 | 3.2 | 0.00 | 0.00 | 0.00 | 72 | 1012.1 |
| 20260506090028 | 9 | 34 | 0.0 | 3.2 | 0.00 | 0.00 | 0.00 | 71 | 1012.1 |
| 20260506085527 | 9 | 34 | 0.0 | 3.2 | 0.00 | 0.00 | 0.00 | 70 | 1012.0 |
| 20260506085026 | 10 | 34 | 0.0 | 3.2 | 0.00 | 0.00 | 0.00 | 68 | 1012.0 |
| 20260506084526 | 10 | 34 | 0.0 | 3.2 | 0.00 | 0.00 | 0.00 | 68 | 1012.0 |
| 20260506084026 | 10 | 34 | 0.0 | 3.2 | 0.00 | 0.00 | 0.00 | 69 | 1011.9 |
| 20260506083526 | 10 | 34 | 0.0 | 3.2 | 0.00 | 0.00 | 0.00 | 69 | 1012.0 |
| 20260506083024 | 10 | 33 | 0.0 | 3.2 | 0.00 | 0.00 | 0.00 | 71 | 1011.9 |
| 20260506082523 | 10 | 33 | 0.0 | 3.2 | 0.00 | 0.00 | 0.00 | 68 | 1011.9 |
| 20260506082023 | 10 | 34 | 0.0 | 3.2 | 0.00 | 0.00 | 0.00 | 68 | 1011.8 |
| 20260506081522 | 10 | 34 | 0.0 | 3.2 | 0.00 | 0.00 | 0.00 | 68 | 1011.8 |
| 20260506081022 | 10 | 34 | 0.0 | 3.2 | 0.00 | 0.00 | 0.00 | 67 | 1011.8 |
| 20260506080522 | 10 | 34 | 0.0 | 3.2 | 0.00 | 0.00 | 0.00 | 67 | 1011.8 |
| 20260506073516 | 11 | 52 | 0.0 | 3.2 | 0.00 | 0.00 | 0.00 | 64 | 1011.6 |
| 20260506073016 | 11 | 52 | 0.0 | 3.2 | 0.00 | 0.00 | 0.00 | 62 | 1011.5 |
| 20260506072515 | 11 | 52 | 0.0 | 3.2 | 0.00 | 0.00 | 0.00 | 63 | 1011.5 |
| 20260506072014 | 11 | 38 | 0.0 | 3.2 | 0.00 | 0.00 | 0.00 | 64 | 1011.5 |
| 20260506071514 | 11 | 41 | 0.0 | 3.2 | 0.00 | 0.00 | 0.00 | 64 | 1011.5 |
| 20260506071013 | 11 | 40 | 1.6 | 1.6 | 0.00 | 0.00 | 0.00 | 64 | 1011.4 |